Location: Austin
(30.3000°N, 97.7500°W)
Time: 01:21:23
(UTC-05:00)

Lacrosse 5 - Pass Details

Date: 15 May 2024
Orbit: 714 x 724 km, 57.0° (Epoch: 09 March)

Event Time Altitude Azimuth Distance (km) Brightness Sun altitude
Rises 23:00:27 0° 340° (NNW) 3,137 6.2 -29.2°
Reaches altitude 10° 23:03:51 10° 3° (N) 2,215 4.9 -29.6°
Enters shadow 23:06:49 15° 39° (NE) 1,872 4.1 -30.0°
